TimeEST,TemperatureF,Dew PointF,Humidity,Sea Level PressureIn,VisibilityMPH,Wind Direction,Wind SpeedMPH,Gust SpeedMPH,PrecipitationIn,Events,Conditions,WindDirDegrees,DateUTC
12:53 AM,39.9,28.9,65,29.81,10.0,South,16.1,-,N/A,,Overcast,180,2013-02-08 05:53:00
1:53 AM,39.9,30.0,68,29.78,10.0,South,17.3,25.3,N/A,,Overcast,190,2013-02-08 06:53:00
2:53 AM,39.9,32.0,73,29.78,10.0,South,11.5,-,0.00,Rain,Light Rain,190,2013-02-08 07:53:00
3:53 AM,39.9,33.1,77,29.74,9.0,South,12.7,-,0.00,Rain,Light Rain,180,2013-02-08 08:53:00
4:53 AM,39.9,34.0,79,29.73,6.0,South,12.7,-,0.03,Rain,Light Rain,190,2013-02-08 09:53:00
5:53 AM,39.0,36.0,89,29.74,5.0,SW,10.4,-,0.10,Rain,Light Rain,230,2013-02-08 10:53:00
6:53 AM,37.9,36.0,93,29.76,9.0,West,15.0,24.2,0.06,Rain,Light Rain,270,2013-02-08 11:53:00
7:26 AM,37.4,33.8,87,29.76,9.0,West,13.8,-,0.00,Rain,Light Rain,270,2013-02-08 12:26:00
7:53 AM,35.1,33.1,92,29.80,3.0,West,16.1,25.3,0.00,,Overcast,270,2013-02-08 12:53:00
7:57 AM,35.6,33.8,93,29.79,2.5,West,17.3,25.3,N/A,,Overcast,280,2013-02-08 12:57:00
8:19 AM,33.8,30.2,87,29.80,1.8,WNW,18.4,24.2,0.00,Snow,Light Snow,290,2013-02-08 13:19:00
8:53 AM,32.0,30.0,92,29.85,1.8,WNW,17.3,-,0.01,,Overcast,300,2013-02-08 13:53:00
9:14 AM,30.2,30.2,100,29.84,2.0,WNW,17.3,24.2,0.00,Snow,Light Snow,300,2013-02-08 14:14:00
9:29 AM,30.2,28.4,93,29.84,1.8,WNW,17.3,24.2,0.00,Snow,Light Snow,300,2013-02-08 14:29:00
9:51 AM,30.2,28.4,93,29.85,0.8,WNW,16.1,25.3,0.00,Snow,Light Snow,300,2013-02-08 14:51:00
9:53 AM,30.9,28.9,92,29.87,0.8,NW,15.0,25.3,0.00,Snow,Light Snow,310,2013-02-08 14:53:00
10:17 AM,30.2,28.4,93,29.87,1.2,NW,17.3,24.2,0.00,Snow,Light Snow,310,2013-02-08 15:17:00
10:35 AM,30.2,28.4,93,29.88,2.0,NNW,15.0,27.6,0.00,Snow,Light Snow,340,2013-02-08 15:35:00
10:51 AM,30.2,26.6,86,29.89,1.2,NNW,19.6,28.8,0.00,Snow,Light Snow,330,2013-02-08 15:51:00
10:53 AM,30.0,27.0,88,29.92,1.2,NNW,18.4,28.8,0.00,Snow,Light Snow,330,2013-02-08 15:53:00
11:23 AM,30.2,26.6,86,29.92,2.5,NNW,19.6,27.6,0.00,Snow,Light Snow,340,2013-02-08 16:23:00
11:31 AM,30.2,26.6,86,29.92,4.0,NNW,20.7,28.8,0.00,Snow,Light Snow,340,2013-02-08 16:31:00
11:49 AM,28.4,24.8,86,29.94,2.5,NNW,19.6,29.9,0.00,Snow,Light Snow,340,2013-02-08 16:49:00
11:53 AM,28.9,25.0,85,29.96,2.5,NNW,19.6,28.8,0.00,Snow,Light Snow,330,2013-02-08 16:53:00
12:03 PM,28.4,24.8,86,29.95,1.8,NNW,17.3,31.1,0.00,Snow,Light Snow,340,2013-02-08 17:03:00
12:05 PM,28.4,24.8,86,29.95,2.0,NNW,15.0,31.1,0.00,Snow,Light Snow,330,2013-02-08 17:05:00
12:17 PM,28.4,24.8,86,29.95,4.0,NNW,17.3,32.2,0.00,Snow,Light Snow,340,2013-02-08 17:17:00
12:40 PM,28.4,24.8,86,29.96,2.5,NNW,23.0,31.1,0.00,Snow,Light Snow,330,2013-02-08 17:40:00
12:53 PM,28.0,24.1,85,30.00,3.0,NNW,26.5,36.8,0.00,Snow,Light Snow,340,2013-02-08 17:53:00
1:00 PM,28.4,23.0,80,29.97,2.5,NNW,19.6,36.8,0.00,Snow,Light Snow,340,2013-02-08 18:00:00
1:08 PM,28.4,23.0,80,29.98,5.0,NNW,19.6,29.9,0.00,Snow,Light Snow,340,2013-02-08 18:08:00
1:14 PM,28.4,23.0,80,29.98,2.5,NNW,25.3,33.4,0.00,Snow,Light Snow,340,2013-02-08 18:14:00
1:28 PM,28.4,23.0,80,29.99,4.0,NNW,20.7,28.8,0.00,Snow,Light Snow,330,2013-02-08 18:28:00
1:53 PM,28.9,23.0,78,30.03,5.0,NNW,20.7,28.8,0.00,Snow,Light Snow,340,2013-02-08 18:53:00
2:53 PM,28.9,21.9,75,30.06,6.0,North,19.6,31.1,0.00,Snow,Light Snow,350,2013-02-08 19:53:00
3:53 PM,28.0,21.9,78,30.10,8.0,North,25.3,31.1,0.00,Snow,Light Snow,360,2013-02-08 20:53:00
4:53 PM,27.0,21.0,78,30.13,7.0,North,18.4,25.3,0.00,,Overcast,350,2013-02-08 21:53:00
5:53 PM,26.1,19.9,78,30.17,10.0,North,16.1,27.6,0.00,Snow,Light Snow,350,2013-02-08 22:53:00
6:53 PM,27.0,21.0,78,30.21,7.0,North,19.6,28.8,0.00,Snow,Light Snow,360,2013-02-08 23:53:00
7:53 PM,27.0,19.9,75,30.24,9.0,North,15.0,27.6,0.00,Snow,Light Snow,350,2013-02-09 00:53:00
8:53 PM,26.1,19.9,78,30.26,9.0,North,19.6,25.3,0.00,Snow,Light Snow,360,2013-02-09 01:53:00
9:53 PM,26.1,19.0,75,30.28,9.0,North,16.1,-,0.00,,Overcast,360,2013-02-09 02:53:00
10:53 PM,26.1,19.0,75,30.30,10.0,NNW,16.1,21.9,0.00,,Overcast,340,2013-02-09 03:53:00
11:53 PM,26.1,19.0,75,30.31,10.0,North,12.7,20.7,N/A,,Overcast,350,2013-02-09 04:53:00